User: anonymous   Login
Location: Unspecified
(0.0000°N, 0.0000°E)
Time: 14:16:53
(UTC+00:00)
Language:

METEOR-M - Orbit

View from above orbital plane
View from above orbital plane
View from above satellite
View from above satellite

Ground track
Ground track

The orbit data is extracted from the following two-line orbital elements,

1 35865U 09049A   16244.08847031  .00000008  00000-0  22646-4 0  9999
2 35865  98.4513 272.3232 0001180 276.8284  83.2760 14.22077358360865
Epoch (UTC): 31 August 2016 02:07:23
Eccentricity: 0.0001180
inclination: 98.4513°
perigee height: 817 km
apogee height: 819 km
right ascension of ascending node: 272.3232°
argument of perigee: 276.8284°
revolutions per day: 14.22077358
mean anomaly at epoch: 83.2760°
orbit number at epoch: 36086

The dashed part of the orbit path shows where the satellite is in the earth's shadow,  

DLR